Time,TemperatureF,DewpointF,PressureIn,WindDirection,WindDirectionDegrees,WindSpeedMPH,WindSpeedGustMPH,Humidity,HourlyPrecipIn,Conditions,Clouds,dailyrainin,SoftwareType,DateUTC
2013-04-24 00:01:00,58.3,44.0,29.90,NNE,22,0.0,0.0,59,0.00,,,0.00,WUHU21623XXSP,2013-04-24 04:01:00,
2013-04-24 00:06:00,58.1,44.3,29.90,NNE,22,0.0,0.0,60,0.00,,,0.00,WUHU21623XXSP,2013-04-24 04:06:00,
2013-04-24 00:11:00,57.9,44.6,29.90,NNE,22,0.0,0.0,61,0.00,,,0.00,WUHU21623XXSP,2013-04-24 04:11:00,
2013-04-24 00:16:00,57.7,44.8,29.90,NNE,22,0.0,0.0,62,0.00,,,0.00,WUHU21623XXSP,2013-04-24 04:16:00,
2013-04-24 00:21:00,57.6,45.0,29.90,NNE,22,0.0,0.0,63,0.00,,,0.00,WUHU21623XXSP,2013-04-24 04:21:00,
2013-04-24 00:26:00,57.4,44.9,29.91,NNE,22,0.0,0.0,63,0.00,,,0.00,WUHU21623XXSP,2013-04-24 04:26:00,
2013-04-24 00:31:00,57.2,44.9,29.91,NNE,22,0.0,0.0,63,0.00,,,0.00,WUHU21623XXSP,2013-04-24 04:31:00,
2013-04-24 00:36:00,57.0,44.9,29.91,NNE,22,0.0,0.0,64,0.00,,,0.00,WUHU21623XXSP,2013-04-24 04:36:00,
2013-04-24 00:41:00,56.8,45.2,29.91,NNE,22,0.0,0.0,65,0.00,,,0.00,WUHU21623XXSP,2013-04-24 04:41:00,
2013-04-24 00:46:00,56.8,45.2,29.91,North,0,0.0,0.0,65,0.00,,,0.00,WUHU21623XXSP,2013-04-24 04:46:00,
2013-04-24 00:51:00,56.5,45.2,29.91,NNE,22,0.0,0.0,66,0.00,,,0.00,WUHU21623XXSP,2013-04-24 04:51:00,
2013-04-24 00:56:00,56.5,45.2,29.91,NNE,22,0.0,0.0,66,0.00,,,0.00,WUHU21623XXSP,2013-04-24 04:56:00,
2013-04-24 01:01:00,56.5,45.2,29.92,NNE,22,0.0,0.0,66,0.00,,,0.00,WUHU21623XXSP,2013-04-24 05:01:00,
2013-04-24 01:06:00,56.1,44.9,29.92,North,0,0.0,0.0,66,0.00,,,0.00,WUHU21623XXSP,2013-04-24 05:06:00,
2013-04-24 01:11:00,56.1,44.9,29.92,North,0,0.0,0.0,66,0.00,,,0.00,WUHU21623XXSP,2013-04-24 05:11:00,
2013-04-24 01:16:00,55.9,45.1,29.92,North,0,0.0,0.0,67,0.00,,,0.00,WUHU21623XXSP,2013-04-24 05:16:00,
2013-04-24 01:21:00,55.8,44.9,29.92,North,0,0.0,0.0,67,0.00,,,0.00,WUHU21623XXSP,2013-04-24 05:21:00,
2013-04-24 01:26:00,55.6,44.8,29.92,North,0,0.0,0.0,67,0.00,,,0.00,WUHU21623XXSP,2013-04-24 05:26:00,
2013-04-24 01:31:00,55.2,44.9,29.92,North,0,0.0,0.0,68,0.00,,,0.00,WUHU21623XXSP,2013-04-24 05:31:00,
2013-04-24 01:36:00,55.2,44.9,29.92,North,0,0.0,0.0,68,0.00,,,0.00,WUHU21623XXSP,2013-04-24 05:36:00,
2013-04-24 01:41:00,55.0,44.7,29.92,North,0,0.0,0.0,68,0.00,,,0.00,WUHU21623XXSP,2013-04-24 05:41:00,
2013-04-24 01:46:00,54.7,44.3,29.91,North,0,0.0,0.0,68,0.00,,,0.00,WUHU21623XXSP,2013-04-24 05:46:00,
2013-04-24 01:51:00,54.5,44.7,29.91,North,0,0.0,0.0,69,0.00,,,0.00,WUHU21623XXSP,2013-04-24 05:51:00,
2013-04-24 01:56:00,54.3,44.4,29.91,North,0,0.0,0.0,69,0.00,,,0.00,WUHU21623XXSP,2013-04-24 05:56:00,
2013-04-24 02:01:00,54.1,44.4,29.91,North,0,0.0,0.0,69,0.00,,,0.00,WUHU21623XXSP,2013-04-24 06:01:00,
2013-04-24 02:06:00,54.0,44.4,29.91,North,0,0.0,0.0,70,0.00,,,0.00,WUHU21623XXSP,2013-04-24 06:06:00,
2013-04-24 02:11:00,53.8,44.2,29.91,North,0,0.0,0.0,70,0.00,,,0.00,WUHU21623XXSP,2013-04-24 06:11:00,
2013-04-24 02:16:00,53.4,44.2,29.91,North,0,0.0,0.0,71,0.00,,,0.00,WUHU21623XXSP,2013-04-24 06:16:00,
2013-04-24 02:21:00,53.4,44.2,29.91,North,0,0.0,0.0,71,0.00,,,0.00,WUHU21623XXSP,2013-04-24 06:21:00,
2013-04-24 02:26:00,53.4,44.2,29.91,North,0,0.0,0.0,71,0.00,,,0.00,WUHU21623XXSP,2013-04-24 06:26:00,
2013-04-24 02:31:00,53.2,44.4,29.91,North,0,0.0,0.0,72,0.00,,,0.00,WUHU21623XXSP,2013-04-24 06:31:00,
2013-04-24 02:36:00,52.9,44.1,29.91,North,0,0.0,0.0,72,0.00,,,0.00,WUHU21623XXSP,2013-04-24 06:36:00,
2013-04-24 02:41:00,52.9,44.5,29.91,North,0,0.0,0.0,73,0.00,,,0.00,WUHU21623XXSP,2013-04-24 06:41:00,
2013-04-24 02:46:00,52.7,44.3,29.90,North,0,0.0,0.0,73,0.00,,,0.00,WUHU21623XXSP,2013-04-24 06:46:00,
2013-04-24 02:51:00,52.5,44.1,29.91,North,0,0.0,0.0,73,0.00,,,0.00,WUHU21623XXSP,2013-04-24 06:51:00,
2013-04-24 02:56:00,52.3,44.1,29.91,North,0,0.0,0.0,73,0.00,,,0.00,WUHU21623XXSP,2013-04-24 06:56:00,
2013-04-24 03:01:00,52.2,44.3,29.91,North,0,0.0,0.0,74,0.00,,,0.00,WUHU21623XXSP,2013-04-24 07:01:00,
2013-04-24 03:06:00,52.0,44.0,29.90,North,0,0.0,0.0,74,0.00,,,0.00,WUHU21623XXSP,2013-04-24 07:06:00,
2013-04-24 03:11:00,51.8,43.8,29.90,North,0,0.0,0.0,74,0.00,,,0.00,WUHU21623XXSP,2013-04-24 07:11:00,
2013-04-24 03:16:00,51.6,43.6,29.91,North,0,0.0,0.0,74,0.00,,,0.00,WUHU21623XXSP,2013-04-24 07:16:00,
2013-04-24 03:21:00,51.6,44.0,29.91,North,0,0.0,0.0,75,0.00,,,0.00,WUHU21623XXSP,2013-04-24 07:21:00,
2013-04-24 03:26:00,51.4,43.8,29.91,North,0,0.0,0.0,75,0.00,,,0.00,WUHU21623XXSP,2013-04-24 07:26:00,
2013-04-24 03:31:00,51.3,43.6,29.91,North,0,0.0,0.0,75,0.00,,,0.00,WUHU21623XXSP,2013-04-24 07:31:00,
2013-04-24 03:36:00,51.1,43.4,29.91,North,0,0.0,0.0,75,0.00,,,0.00,WUHU21623XXSP,2013-04-24 07:36:00,
2013-04-24 03:41:00,50.9,43.3,29.90,North,0,0.0,0.0,75,0.00,,,0.00,WUHU21623XXSP,2013-04-24 07:41:00,
2013-04-24 03:46:00,50.7,43.4,29.90,North,0,0.0,0.0,76,0.00,,,0.00,WUHU21623XXSP,2013-04-24 07:46:00,
2013-04-24 03:51:00,50.5,43.2,29.90,North,0,0.0,0.0,76,0.00,,,0.00,WUHU21623XXSP,2013-04-24 07:51:00,
2013-04-24 03:56:00,50.5,43.2,29.90,North,0,0.0,0.0,76,0.00,,,0.00,WUHU21623XXSP,2013-04-24 07:56:00,
2013-04-24 04:01:00,50.4,43.1,29.90,North,0,0.0,0.0,76,0.00,,,0.00,WUHU21623XXSP,2013-04-24 08:01:00,
2013-04-24 04:06:00,50.2,42.9,29.90,North,0,0.0,0.0,76,0.00,,,0.00,WUHU21623XXSP,2013-04-24 08:06:00,
2013-04-24 04:11:00,50.0,43.0,29.90,North,0,0.0,0.0,77,0.00,,,0.00,WUHU21623XXSP,2013-04-24 08:11:00,
2013-04-24 04:16:00,49.8,42.9,29.90,North,0,0.0,0.0,77,0.00,,,0.00,WUHU21623XXSP,2013-04-24 08:16:00,
2013-04-24 04:21:00,49.8,42.9,29.90,North,0,0.0,0.0,77,0.00,,,0.00,WUHU21623XXSP,2013-04-24 08:21:00,
2013-04-24 04:26:00,49.6,43.0,29.90,North,0,0.0,0.0,78,0.00,,,0.00,WUHU21623XXSP,2013-04-24 08:26:00,
2013-04-24 04:31:00,49.5,42.8,29.90,North,0,0.0,0.0,78,0.00,,,0.00,WUHU21623XXSP,2013-04-24 08:31:00,
2013-04-24 04:36:00,49.3,42.7,29.90,North,0,0.0,0.0,78,0.00,,,0.00,WUHU21623XXSP,2013-04-24 08:36:00,
2013-04-24 04:41:00,49.1,42.5,29.90,North,0,0.0,0.0,78,0.00,,,0.00,WUHU21623XXSP,2013-04-24 08:41:00,
2013-04-24 04:46:00,49.1,42.5,29.90,North,0,0.0,0.0,78,0.00,,,0.00,WUHU21623XXSP,2013-04-24 08:46:00,
2013-04-24 04:51:00,48.9,42.3,29.89,North,0,0.0,0.0,78,0.00,,,0.00,WUHU21623XXSP,2013-04-24 08:51:00,
2013-04-24 04:56:00,48.9,42.3,29.89,North,0,0.0,0.0,78,0.00,,,0.00,WUHU21623XXSP,2013-04-24 08:56:00,
2013-04-24 05:01:00,48.7,42.1,29.88,North,0,0.0,0.0,78,0.00,,,0.00,WUHU21623XXSP,2013-04-24 09:01:00,
2013-04-24 05:06:00,48.7,42.5,29.89,North,0,0.0,0.0,79,0.00,,,0.00,WUHU21623XXSP,2013-04-24 09:06:00,
2013-04-24 05:11:00,48.6,42.3,29.88,North,0,0.0,0.0,79,0.00,,,0.00,WUHU21623XXSP,2013-04-24 09:11:00,
2013-04-24 05:16:00,48.4,42.1,29.89,North,0,0.0,0.0,79,0.00,,,0.00,WUHU21623XXSP,2013-04-24 09:16:00,
2013-04-24 05:21:00,48.4,42.1,29.88,North,0,0.0,0.0,79,0.00,,,0.00,WUHU21623XXSP,2013-04-24 09:21:00,
2013-04-24 05:26:00,48.0,41.9,29.88,North,0,0.0,0.0,79,0.00,,,0.00,WUHU21623XXSP,2013-04-24 09:26:00,
2013-04-24 05:31:00,48.0,41.8,29.88,North,0,0.0,0.0,79,0.00,,,0.00,WUHU21623XXSP,2013-04-24 09:31:00,
2013-04-24 05:36:00,48.0,42.1,29.88,North,0,0.0,0.0,80,0.00,,,0.00,WUHU21623XXSP,2013-04-24 09:36:00,
2013-04-24 05:41:00,47.8,41.9,29.88,North,0,0.0,0.0,80,0.00,,,0.00,WUHU21623XXSP,2013-04-24 09:41:00,
2013-04-24 05:46:00,47.7,41.8,29.88,North,0,0.0,0.0,80,0.00,,,0.00,WUHU21623XXSP,2013-04-24 09:46:00,
2013-04-24 05:51:00,47.7,41.8,29.88,North,0,0.0,0.0,80,0.00,,,0.00,WUHU21623XXSP,2013-04-24 09:51:00,
2013-04-24 05:56:00,47.5,41.6,29.88,North,0,0.0,0.0,80,0.00,,,0.00,WUHU21623XXSP,2013-04-24 09:56:00,
2013-04-24 06:01:00,47.5,41.6,29.87,North,0,0.0,0.0,80,0.00,,,0.00,WUHU21623XXSP,2013-04-24 10:01:00,
2013-04-24 06:06:00,47.3,41.5,29.87,North,0,0.0,0.0,80,0.00,,,0.00,WUHU21623XXSP,2013-04-24 10:06:00,
2013-04-24 06:11:00,47.3,41.5,29.87,North,0,0.0,0.0,80,0.00,,,0.00,WUHU21623XXSP,2013-04-24 10:11:00,
2013-04-24 06:16:00,47.1,41.3,29.87,North,0,0.0,0.0,80,0.00,,,0.00,WUHU21623XXSP,2013-04-24 10:16:00,
2013-04-24 06:21:00,47.1,41.6,29.87,North,0,0.0,0.0,81,0.00,,,0.00,WUHU21623XXSP,2013-04-24 10:21:00,
2013-04-24 06:26:00,47.1,41.6,29.87,North,0,0.0,0.0,81,0.00,,,0.00,WUHU21623XXSP,2013-04-24 10:26:00,
2013-04-24 06:31:00,46.9,41.4,29.87,North,0,0.0,0.0,81,0.00,,,0.00,WUHU21623XXSP,2013-04-24 10:31:00,
2013-04-24 06:36:00,46.9,41.4,29.86,North,0,0.0,0.0,81,0.00,,,0.00,WUHU21623XXSP,2013-04-24 10:36:00,
2013-04-24 06:41:00,46.9,41.7,29.86,North,0,0.0,0.0,82,0.00,,,0.00,WUHU21623XXSP,2013-04-24 10:41:00,
2013-04-24 06:46:00,46.8,41.6,29.86,North,0,0.0,0.0,82,0.00,,,0.00,WUHU21623XXSP,2013-04-24 10:46:00,
2013-04-24 06:51:00,46.6,41.4,29.87,North,0,0.0,0.0,82,0.00,,,0.00,WUHU21623XXSP,2013-04-24 10:51:00,
2013-04-24 06:56:00,46.8,41.6,29.86,North,0,0.0,0.0,82,0.00,,,0.00,WUHU21623XXSP,2013-04-24 10:56:00,
2013-04-24 07:01:00,46.8,41.6,29.86,North,0,0.0,0.0,82,0.00,,,0.00,WUHU21623XXSP,2013-04-24 11:01:00,
2013-04-24 07:06:00,46.8,41.6,29.86,North,0,0.0,0.0,82,0.00,,,0.00,WUHU21623XXSP,2013-04-24 11:06:00,
2013-04-24 07:11:00,46.8,41.9,29.86,North,0,0.0,0.0,83,0.00,,,0.00,WUHU21623XXSP,2013-04-24 11:11:00,
2013-04-24 07:16:00,46.8,41.9,29.86,North,0,0.0,0.0,83,0.00,,,0.00,WUHU21623XXSP,2013-04-24 11:16:00,
2013-04-24 07:21:00,46.9,42.0,29.86,North,0,0.0,0.0,83,0.00,,,0.00,WUHU21623XXSP,2013-04-24 11:21:00,
2013-04-24 07:26:00,47.1,42.0,29.86,North,0,0.0,0.0,83,0.00,,,0.00,WUHU21623XXSP,2013-04-24 11:26:00,
2013-04-24 07:31:00,47.1,42.2,29.86,North,0,0.0,0.0,83,0.00,,,0.00,WUHU21623XXSP,2013-04-24 11:31:00,
2013-04-24 07:36:00,47.5,42.5,29.86,North,0,0.0,0.0,83,0.00,,,0.00,WUHU21623XXSP,2013-04-24 11:36:00,
2013-04-24 07:41:00,47.7,42.7,29.86,North,0,0.0,0.0,83,0.00,,,0.00,WUHU21623XXSP,2013-04-24 11:41:00,
2013-04-24 07:46:00,48.0,43.4,29.86,North,0,0.0,0.0,84,0.00,,,0.00,WUHU21623XXSP,2013-04-24 11:46:00,
2013-04-24 07:51:00,48.4,43.7,29.85,North,0,0.0,0.0,83,0.00,,,0.00,WUHU21623XXSP,2013-04-24 11:51:00,
2013-04-24 07:56:00,48.4,43.4,29.86,North,0,0.0,0.0,83,0.00,,,0.00,WUHU21623XXSP,2013-04-24 11:56:00,
2013-04-24 08:01:00,48.7,43.8,29.85,North,0,0.0,0.0,83,0.00,,,0.00,WUHU21623XXSP,2013-04-24 12:01:00,
2013-04-24 08:06:00,49.1,43.9,29.86,North,0,0.0,0.0,83,0.00,,,0.00,WUHU21623XXSP,2013-04-24 12:06:00,
2013-04-24 08:11:00,49.3,44.3,29.86,North,0,0.0,0.0,83,0.00,,,0.00,WUHU21623XXSP,2013-04-24 12:11:00,
2013-04-24 08:16:00,49.6,44.6,29.86,North,0,0.0,0.0,83,0.00,,,0.00,WUHU21623XXSP,2013-04-24 12:16:00,
2013-04-24 08:21:00,49.8,44.5,29.86,North,0,0.0,0.0,82,0.00,,,0.00,WUHU21623XXSP,2013-04-24 12:21:00,
2013-04-24 08:26:00,50.2,44.5,29.86,North,0,0.0,0.0,82,0.00,,,0.00,WUHU21623XXSP,2013-04-24 12:26:00,
2013-04-24 08:31:00,50.2,44.9,29.86,North,0,0.0,0.0,82,0.00,,,0.00,WUHU21623XXSP,2013-04-24 12:31:00,
2013-04-24 08:36:00,50.5,45.2,29.86,North,0,0.0,0.0,82,0.00,,,0.00,WUHU21623XXSP,2013-04-24 12:36:00,
2013-04-24 08:41:00,50.7,45.2,29.87,North,0,0.0,0.0,82,0.00,,,0.00,WUHU21623XXSP,2013-04-24 12:41:00,
2013-04-24 08:46:00,50.7,45.4,29.87,North,0,0.0,0.0,82,0.00,,,0.00,WUHU21623XXSP,2013-04-24 12:46:00,
2013-04-24 08:51:00,50.9,45.6,29.87,North,0,0.0,0.0,82,0.00,,,0.00,WUHU21623XXSP,2013-04-24 12:51:00,
2013-04-24 08:56:00,51.1,45.8,29.87,North,0,0.0,0.0,81,0.00,,,0.00,WUHU21623XXSP,2013-04-24 12:56:00,
2013-04-24 09:01:00,51.4,45.8,29.86,North,0,0.0,0.0,82,0.00,,,0.00,WUHU21623XXSP,2013-04-24 13:01:00,
2013-04-24 09:06:00,51.6,46.3,29.86,North,0,0.0,0.0,82,0.00,,,0.00,WUHU21623XXSP,2013-04-24 13:06:00,
2013-04-24 09:11:00,51.6,46.3,29.86,North,0,0.0,0.0,82,0.00,,,0.00,WUHU21623XXSP,2013-04-24 13:11:00,
2013-04-24 09:16:00,51.6,46.0,29.86,NE,45,0.0,0.0,81,0.00,,,0.00,WUHU21623XXSP,2013-04-24 13:16:00,
2013-04-24 09:21:00,51.6,46.0,29.86,NE,45,0.0,0.0,81,0.00,,,0.00,WUHU21623XXSP,2013-04-24 13:21:00,
2013-04-24 09:26:00,51.6,46.0,29.86,NE,45,0.0,0.0,81,0.00,,,0.00,WUHU21623XXSP,2013-04-24 13:26:00,
2013-04-24 09:31:00,51.6,46.0,29.87,NE,45,0.0,0.0,81,0.00,,,0.00,WUHU21623XXSP,2013-04-24 13:31:00,
2013-04-24 09:36:00,52.0,46.2,29.86,NE,45,0.0,0.0,81,0.00,,,0.00,WUHU21623XXSP,2013-04-24 13:36:00,
2013-04-24 09:41:00,52.0,46.3,29.86,NE,45,0.0,0.0,81,0.00,,,0.00,WUHU21623XXSP,2013-04-24 13:41:00,
2013-04-24 09:46:00,52.0,46.3,29.87,NNE,22,0.0,0.7,81,0.00,,,0.00,WUHU21623XXSP,2013-04-24 13:46:00,
2013-04-24 09:51:00,52.0,46.3,29.87,North,0,0.0,0.7,82,0.00,,,0.00,WUHU21623XXSP,2013-04-24 13:51:00,
2013-04-24 09:56:00,52.0,46.3,29.87,North,0,0.0,0.0,81,0.00,,,0.00,WUHU21623XXSP,2013-04-24 13:56:00,
2013-04-24 10:01:00,52.2,46.7,29.87,North,0,0.0,0.0,82,0.00,,,0.00,WUHU21623XXSP,2013-04-24 14:01:00,
2013-04-24 10:06:00,52.2,46.8,29.87,North,0,0.0,0.0,82,0.00,,,0.00,WUHU21623XXSP,2013-04-24 14:06:00,
2013-04-24 10:11:00,52.3,46.7,29.87,North,0,0.0,0.0,81,0.00,,,0.00,WUHU21623XXSP,2013-04-24 14:11:00,
2013-04-24 10:16:00,52.5,46.9,29.87,North,0,0.0,0.0,81,0.00,,,0.00,WUHU21623XXSP,2013-04-24 14:16:00,
2013-04-24 10:21:00,52.9,47.2,29.88,NNE,22,0.0,0.0,81,0.00,,,0.00,WUHU21623XXSP,2013-04-24 14:21:00,
2013-04-24 10:26:00,52.9,47.2,29.88,NNE,22,0.0,0.0,81,0.00,,,0.00,WUHU21623XXSP,2013-04-24 14:26:00,
2013-04-24 10:31:00,53.2,47.6,29.89,NE,45,0.0,0.0,81,0.00,,,0.00,WUHU21623XXSP,2013-04-24 14:31:00,
2013-04-24 10:36:00,53.8,48.1,29.89,ENE,67,0.0,0.0,81,0.00,,,0.00,WUHU21623XXSP,2013-04-24 14:36:00,
2013-04-24 10:41:00,54.0,48.1,29.89,ENE,67,0.0,0.0,81,0.00,,,0.00,WUHU21623XXSP,2013-04-24 14:41:00,
2013-04-24 10:46:00,54.3,48.3,29.89,ENE,67,0.0,0.0,80,0.00,,,0.00,WUHU21623XXSP,2013-04-24 14:46:00,
2013-04-24 10:51:00,54.5,48.5,29.89,ENE,67,0.0,0.0,80,0.00,,,0.00,WUHU21623XXSP,2013-04-24 14:51:00,
2013-04-24 10:56:00,54.5,48.1,29.89,North,0,0.0,0.0,79,0.00,,,0.00,WUHU21623XXSP,2013-04-24 14:56:00,
2013-04-24 11:01:00,55.0,48.6,29.88,North,0,0.0,0.0,79,0.00,,,0.00,WUHU21623XXSP,2013-04-24 15:01:00,
2013-04-24 11:09:00,56.3,49.5,29.88,SE,135,0.0,3.1,78,0.00,,,0.00,WUHU21623XXSP,2013-04-24 15:09:00,
2013-04-24 11:14:00,56.8,49.6,29.89,SE,135,0.0,0.0,77,0.00,,,0.00,WUHU21623XXSP,2013-04-24 15:14:00,
2013-04-24 11:19:00,57.9,50.0,29.89,SE,135,0.0,0.0,75,0.00,,,0.00,WUHU21623XXSP,2013-04-24 15:19:00,
2013-04-24 11:24:00,58.3,50.0,29.89,SE,135,0.0,0.0,74,0.00,,,0.00,WUHU21623XXSP,2013-04-24 15:24:00,
2013-04-24 11:29:00,58.8,50.2,29.89,SE,135,0.0,0.0,73,0.00,,,0.00,WUHU21623XXSP,2013-04-24 15:29:00,
2013-04-24 11:34:00,58.8,49.8,29.89,SE,135,0.0,0.0,72,0.00,,,0.00,WUHU21623XXSP,2013-04-24 15:34:00,
2013-04-24 11:39:00,58.8,49.5,29.89,SE,135,0.0,0.0,71,0.00,,,0.00,WUHU21623XXSP,2013-04-24 15:39:00,
2013-04-24 11:44:00,58.8,49.5,29.89,SE,135,0.0,0.0,71,0.00,,,0.00,WUHU21623XXSP,2013-04-24 15:44:00,
2013-04-24 11:49:00,58.8,49.5,29.89,SE,135,0.0,0.0,71,0.00,,,0.00,WUHU21623XXSP,2013-04-24 15:49:00,
2013-04-24 11:54:00,58.8,49.1,29.89,ESE,112,0.0,0.0,70,0.00,,,0.00,WUHU21623XXSP,2013-04-24 15:54:00,
2013-04-24 11:59:00,58.8,49.1,29.89,ESE,112,0.0,0.0,70,0.00,,,0.00,WUHU21623XXSP,2013-04-24 15:59:00,
2013-04-24 12:04:00,58.8,49.1,29.88,ESE,112,0.0,0.0,70,0.00,,,0.00,WUHU21623XXSP,2013-04-24 16:04:00,
2013-04-24 12:09:00,59.2,49.5,29.88,ESE,112,0.0,0.0,70,0.00,,,0.00,WUHU21623XXSP,2013-04-24 16:09:00,
2013-04-24 12:14:00,59.5,49.4,29.89,North,0,1.1,2.9,69,0.00,,,0.00,WUHU21623XXSP,2013-04-24 16:14:00,
2013-04-24 12:19:00,59.5,49.4,29.89,North,0,1.1,2.9,69,0.00,,,0.00,WUHU21623XXSP,2013-04-24 16:19:00,
2013-04-24 12:24:00,60.1,49.6,29.89,ENE,67,0.0,1.3,69,0.00,,,0.00,WUHU21623XXSP,2013-04-24 16:24:00,
2013-04-24 12:29:00,60.4,49.9,29.89,NNW,337,0.0,1.3,68,0.00,,,0.00,WUHU21623XXSP,2013-04-24 16:29:00,
2013-04-24 12:34:00,60.6,49.7,29.88,North,0,0.0,1.6,67,0.00,,,0.00,WUHU21623XXSP,2013-04-24 16:34:00,
2013-04-24 12:39:00,61.0,49.7,29.89,North,0,0.0,1.6,66,0.00,,,0.00,WUHU21623XXSP,2013-04-24 16:39:00,
2013-04-24 12:44:00,61.0,50.0,29.89,North,0,0.0,0.0,67,0.00,,,0.00,WUHU21623XXSP,2013-04-24 16:44:00,
2013-04-24 12:49:00,61.5,50.1,29.88,NNE,22,2.2,2.2,66,0.00,,,0.00,WUHU21623XXSP,2013-04-24 16:49:00,
2013-04-24 12:54:00,61.9,50.0,29.88,SE,135,2.7,2.7,65,0.00,,,0.00,WUHU21623XXSP,2013-04-24 16:54:00,
2013-04-24 12:59:00,62.6,50.2,29.89,SE,135,0.0,2.7,64,0.00,,,0.00,WUHU21623XXSP,2013-04-24 16:59:00,
2013-04-24 13:04:00,63.7,50.4,29.89,SE,135,0.0,2.7,62,0.00,,,0.00,WUHU21623XXSP,2013-04-24 17:04:00,
2013-04-24 13:09:00,64.2,50.4,29.89,ESE,112,0.0,0.0,61,0.00,,,0.00,WUHU21623XXSP,2013-04-24 17:09:00,
2013-04-24 13:14:00,64.8,50.1,29.88,North,0,0.0,4.7,59,0.00,,,0.00,WUHU21623XXSP,2013-04-24 17:14:00,
2013-04-24 13:19:00,64.9,49.7,29.89,NNE,22,0.0,4.7,58,0.00,,,0.00,WUHU21623XXSP,2013-04-24 17:19:00,
2013-04-24 13:24:00,65.3,50.1,29.88,NE,45,0.0,4.5,58,0.00,,,0.00,WUHU21623XXSP,2013-04-24 17:24:00,
2013-04-24 13:29:00,65.8,50.3,29.88,NNE,22,7.4,7.4,56,0.00,,,0.00,WUHU21623XXSP,2013-04-24 17:29:00,
2013-04-24 13:34:00,66.0,49.9,29.88,WNW,292,0.7,7.4,56,0.00,,,0.00,WUHU21623XXSP,2013-04-24 17:34:00,
2013-04-24 13:39:00,66.7,50.0,29.88,SW,225,2.9,2.9,55,0.00,,,0.00,WUHU21623XXSP,2013-04-24 17:39:00,
2013-04-24 13:44:00,67.3,49.5,29.89,North,0,4.0,4.0,53,0.00,,,0.00,WUHU21623XXSP,2013-04-24 17:44:00,
2013-04-24 13:49:00,67.6,50.0,29.89,NNW,337,0.0,4.0,54,0.00,,,0.00,WUHU21623XXSP,2013-04-24 17:49:00,
2013-04-24 13:54:00,67.8,51.5,29.89,NNE,22,0.4,7.2,56,0.00,,,0.00,WUHU21623XXSP,2013-04-24 17:54:00,
2013-04-24 13:59:00,67.6,51.5,29.89,NNE,22,8.3,8.3,56,0.00,,,0.00,WUHU21623XXSP,2013-04-24 17:59:00,
2013-04-24 14:04:00,67.1,51.5,29.89,NE,45,4.7,8.3,58,0.00,,,0.00,WUHU21623XXSP,2013-04-24 18:04:00,
2013-04-24 14:09:00,67.3,52.0,29.89,NE,45,4.7,4.7,58,0.00,,,0.00,WUHU21623XXSP,2013-04-24 18:09:00,
2013-04-24 14:14:00,67.8,52.5,29.88,NNW,337,0.0,8.3,58,0.00,,,0.00,WUHU21623XXSP,2013-04-24 18:14:00,
2013-04-24 14:19:00,68.5,52.7,29.89,NW,315,4.5,8.3,57,0.00,,,0.00,WUHU21623XXSP,2013-04-24 18:19:00,
2013-04-24 14:24:00,68.7,52.7,29.89,North,0,5.4,7.8,57,0.00,,,0.00,WUHU21623XXSP,2013-04-24 18:24:00,
2013-04-24 14:29:00,68.9,52.5,29.89,NNE,22,0.0,6.9,56,0.00,,,0.00,WUHU21623XXSP,2013-04-24 18:29:00,
2013-04-24 14:34:00,69.3,52.7,29.89,NNE,22,3.1,6.9,56,0.00,,,0.00,WUHU21623XXSP,2013-04-24 18:34:00,
2013-04-24 14:39:00,69.1,52.2,29.89,NNE,22,3.8,8.7,55,0.00,,,0.00,WUHU21623XXSP,2013-04-24 18:39:00,
2013-04-24 14:44:00,68.7,52.2,29.89,NNE,22,3.8,8.7,55,0.00,,,0.00,WUHU21623XXSP,2013-04-24 18:44:00,
2013-04-24 14:49:00,68.7,52.2,29.89,NNE,22,0.0,6.5,56,0.00,,,0.00,WUHU21623XXSP,2013-04-24 18:49:00,
2013-04-24 14:54:00,68.9,52.5,29.89,NNW,337,2.7,6.5,56,0.00,,,0.00,WUHU21623XXSP,2013-04-24 18:54:00,
2013-04-24 14:59:00,68.7,51.9,29.88,North,0,7.4,7.4,55,0.00,,,0.00,WUHU21623XXSP,2013-04-24 18:59:00,
2013-04-24 15:04:00,68.0,51.7,29.89,NNE,22,7.8,7.8,56,0.00,,,0.00,WUHU21623XXSP,2013-04-24 19:04:00,
2013-04-24 15:09:00,68.2,51.8,29.89,North,0,7.6,7.8,56,0.00,,,0.00,WUHU21623XXSP,2013-04-24 19:09:00,
2013-04-24 15:14:00,67.8,51.7,29.89,NNW,337,6.5,7.6,56,0.00,,,0.00,WUHU21623XXSP,2013-04-24 19:14:00,
2013-04-24 15:19:00,68.5,52.2,29.89,NW,315,6.0,6.5,56,0.00,,,0.00,WUHU21623XXSP,2013-04-24 19:19:00,
2013-04-24 15:24:00,68.7,51.7,29.89,North,0,6.5,6.5,55,0.00,,,0.00,WUHU21623XXSP,2013-04-24 19:24:00,
2013-04-24 15:29:00,68.7,51.4,29.89,North,0,7.4,7.4,54,0.00,,,0.00,WUHU21623XXSP,2013-04-24 19:29:00,
2013-04-24 15:34:00,68.5,51.4,29.89,NNE,22,7.2,7.4,54,0.00,,,0.00,WUHU21623XXSP,2013-04-24 19:34:00,
2013-04-24 15:39:00,68.2,51.2,29.88,NNE,22,8.5,8.5,54,0.00,,,0.00,WUHU21623XXSP,2013-04-24 19:39:00,
2013-04-24 15:44:00,68.4,51.0,29.88,NE,45,0.0,8.5,54,0.00,,,0.00,WUHU21623XXSP,2013-04-24 19:44:00,
2013-04-24 15:49:00,68.5,50.7,29.88,North,0,3.4,6.9,53,0.00,,,0.00,WUHU21623XXSP,2013-04-24 19:49:00,
2013-04-24 15:54:00,68.4,50.0,29.88,NE,45,0.0,11.0,52,0.00,,,0.00,WUHU21623XXSP,2013-04-24 19:54:00,
2013-04-24 15:59:00,68.5,50.7,29.88,NNE,22,7.2,11.0,53,0.00,,,0.00,WUHU21623XXSP,2013-04-24 19:59:00,
2013-04-24 16:04:00,68.5,50.7,29.87,North,0,7.4,7.4,53,0.00,,,0.00,WUHU21623XXSP,2013-04-24 20:04:00,
2013-04-24 16:09:00,68.5,50.7,29.88,West,270,1.1,7.4,52,0.00,,,0.00,WUHU21623XXSP,2013-04-24 20:09:00,
2013-04-24 16:14:00,68.5,50.2,29.87,NNE,22,2.5,2.5,52,0.00,,,0.00,WUHU21623XXSP,2013-04-24 20:14:00,
2013-04-24 16:19:00,69.1,50.7,29.87,NNW,337,7.6,7.6,52,0.00,,,0.00,WUHU21623XXSP,2013-04-24 20:19:00,
2013-04-24 16:24:00,69.4,51.0,29.87,NNE,22,9.4,9.4,52,0.00,,,0.00,WUHU21623XXSP,2013-04-24 20:24:00,
2013-04-24 16:29:00,69.4,51.0,29.87,NNE,22,0.0,9.4,52,0.00,,,0.00,WUHU21623XXSP,2013-04-24 20:29:00,
2013-04-24 16:34:00,69.4,50.5,29.87,SSW,202,1.1,9.4,51,0.00,,,0.00,WUHU21623XXSP,2013-04-24 20:34:00,
2013-04-24 16:39:00,69.4,50.5,29.87,NNE,22,1.3,1.3,51,0.00,,,0.00,WUHU21623XXSP,2013-04-24 20:39:00,
2013-04-24 16:44:00,69.6,50.7,29.87,NNE,22,6.9,6.9,51,0.00,,,0.00,WUHU21623XXSP,2013-04-24 20:44:00,
2013-04-24 16:49:00,69.4,50.5,29.87,NNW,337,10.5,10.5,51,0.00,,,0.00,WUHU21623XXSP,2013-04-24 20:49:00,
2013-04-24 16:54:00,69.4,50.5,29.87,NNW,337,0.0,10.5,51,0.00,,,0.00,WUHU21623XXSP,2013-04-24 20:54:00,
2013-04-24 16:59:00,69.6,50.7,29.87,North,0,0.0,6.9,51,0.00,,,0.00,WUHU21623XXSP,2013-04-24 20:59:00,
2013-04-24 17:04:00,70.0,51.0,29.87,North,0,3.8,6.9,51,0.00,,,0.00,WUHU21623XXSP,2013-04-24 21:04:00,
2013-04-24 17:09:00,70.5,51.5,29.87,NNW,337,5.6,5.6,51,0.00,,,0.00,WUHU21623XXSP,2013-04-24 21:09:00,
2013-04-24 17:14:00,70.7,51.2,29.87,NNW,337,6.5,6.7,50,0.00,,,0.00,WUHU21623XXSP,2013-04-24 21:14:00,
2013-04-24 17:19:00,70.7,51.2,29.86,West,270,0.0,6.7,50,0.00,,,0.00,WUHU21623XXSP,2013-04-24 21:19:00,
2013-04-24 17:24:00,71.2,51.7,29.86,WNW,292,0.0,0.0,50,0.00,,,0.00,WUHU21623XXSP,2013-04-24 21:24:00,
2013-04-24 17:29:00,71.2,51.7,29.86,WNW,292,1.1,4.7,50,0.00,,,0.00,WUHU21623XXSP,2013-04-24 21:29:00,
2013-04-24 17:34:00,71.4,51.2,29.86,NNE,22,8.3,8.3,49,0.00,,,0.00,WUHU21623XXSP,2013-04-24 21:34:00,
2013-04-24 17:39:00,71.4,51.2,29.85,NNE,22,1.3,8.3,49,0.00,,,0.00,WUHU21623XXSP,2013-04-24 21:39:00,
2013-04-24 17:44:00,71.4,51.2,29.86,NE,45,5.1,8.3,49,0.00,,,0.00,WUHU21623XXSP,2013-04-24 21:44:00,
2013-04-24 17:50:00,71.4,51.2,29.86,NNE,22,4.7,5.1,49,0.00,,,0.00,WUHU21623XXSP,2013-04-24 21:50:00,
2013-04-24 17:55:00,71.2,51.1,29.86,West,270,1.6,5.1,49,0.00,,,0.00,WUHU21623XXSP,2013-04-24 21:55:00,
2013-04-24 18:00:00,71.2,51.2,29.85,NW,315,0.0,6.5,49,0.00,,,0.00,WUHU21623XXSP,2013-04-24 22:00:00,
2013-04-24 18:05:00,71.2,51.1,29.85,NNE,22,0.0,6.5,49,0.00,,,0.00,WUHU21623XXSP,2013-04-24 22:05:00,
2013-04-24 18:10:00,71.2,51.1,29.85,NNE,22,7.8,7.8,49,0.00,,,0.00,WUHU21623XXSP,2013-04-24 22:10:00,
2013-04-24 18:15:00,71.4,51.2,29.85,NNE,22,7.2,7.8,49,0.00,,,0.00,WUHU21623XXSP,2013-04-24 22:15:00,
2013-04-24 18:20:00,71.4,51.2,29.85,West,270,0.0,7.2,49,0.00,,,0.00,WUHU21623XXSP,2013-04-24 22:20:00,
2013-04-24 18:25:00,71.2,51.1,29.85,North,0,8.7,8.7,49,0.00,,,0.00,WUHU21623XXSP,2013-04-24 22:25:00,
2013-04-24 18:29:00,70.7,51.2,29.85,NNE,22,0.0,8.7,50,0.00,,,0.00,WUHU21623XXSP,2013-04-24 22:29:00,
2013-04-24 18:35:00,70.7,51.2,29.84,NNE,22,0.0,8.7,50,0.00,,,0.00,WUHU21623XXSP,2013-04-24 22:35:00,
2013-04-24 18:39:00,70.7,51.7,29.84,NNW,337,2.2,7.2,51,0.00,,,0.00,WUHU21623XXSP,2013-04-24 22:39:00,
2013-04-24 18:44:00,70.3,51.4,29.84,NNE,22,3.4,7.2,51,0.00,,,0.00,WUHU21623XXSP,2013-04-24 22:44:00,
2013-04-24 18:49:00,70.5,51.5,29.84,NNE,22,0.0,6.3,51,0.00,,,0.00,WUHU21623XXSP,2013-04-24 22:49:00,
2013-04-24 18:54:00,70.7,51.5,29.84,NNE,22,0.0,3.4,51,0.00,,,0.00,WUHU21623XXSP,2013-04-24 22:54:00,
2013-04-24 19:00:00,70.5,51.5,29.83,North,0,8.7,8.7,51,0.00,,,0.00,WUHU21623XXSP,2013-04-24 23:00:00,
2013-04-24 19:05:00,70.5,51.5,29.83,NNW,337,5.8,8.7,51,0.00,,,0.00,WUHU21623XXSP,2013-04-24 23:05:00,
2013-04-24 19:10:00,70.5,51.5,29.83,North,0,0.0,6.0,51,0.00,,,0.00,WUHU21623XXSP,2013-04-24 23:10:00,
2013-04-24 19:14:00,71.2,52.2,29.83,NNE,22,4.9,5.8,51,0.00,,,0.00,WUHU21623XXSP,2013-04-24 23:14:00,
2013-04-24 19:20:00,71.1,51.5,29.83,NNE,22,0.4,4.9,50,0.00,,,0.00,WUHU21623XXSP,2013-04-24 23:20:00,
2013-04-24 19:25:00,70.7,51.3,29.83,NW,315,4.0,4.0,50,0.00,,,0.00,WUHU21623XXSP,2013-04-24 23:25:00,
2013-04-24 19:30:00,70.3,51.0,29.83,NNW,337,2.2,4.0,50,0.00,,,0.00,WUHU21623XXSP,2013-04-24 23:30:00,
2013-04-24 19:35:00,70.5,51.0,29.83,South,180,0.0,4.0,50,0.00,,,0.00,WUHU21623XXSP,2013-04-24 23:35:00,
2013-04-24 19:40:00,71.2,51.1,29.83,NE,45,0.0,0.0,49,0.00,,,0.00,WUHU21623XXSP,2013-04-24 23:40:00,
2013-04-24 19:45:00,71.2,51.1,29.83,NNE,22,0.0,0.0,49,0.00,,,0.00,WUHU21623XXSP,2013-04-24 23:45:00,
2013-04-24 19:50:00,71.6,51.4,29.83,SW,225,5.1,5.1,49,0.00,,,0.00,WUHU21623XXSP,2013-04-24 23:50:00,
2013-04-24 19:55:00,71.8,51.5,29.83,North,0,0.0,5.1,49,0.00,,,0.00,WUHU21623XXSP,2013-04-24 23:55:00,
2013-04-24 20:00:00,72.3,51.4,29.83,NW,315,0.0,5.1,48,0.00,,,0.00,WUHU21623XXSP,2013-04-25 00:00:00,
2013-04-24 20:05:00,72.3,52.0,29.83,SE,135,2.5,2.5,49,0.00,,,0.00,WUHU21623XXSP,2013-04-25 00:05:00,
2013-04-24 20:10:00,72.7,52.2,29.84,South,180,0.0,2.5,49,0.00,,,0.00,WUHU21623XXSP,2013-04-25 00:10:00,
2013-04-24 20:15:00,73.0,52.1,29.83,SSW,202,0.0,2.5,48,0.00,,,0.00,WUHU21623XXSP,2013-04-25 00:15:00,
2013-04-24 20:20:00,73.0,52.1,29.84,SSE,157,0.0,0.0,48,0.00,,,0.00,WUHU21623XXSP,2013-04-25 00:20:00,
2013-04-24 20:25:00,73.0,52.1,29.83,WSW,247,0.0,0.0,48,0.00,,,0.00,WUHU21623XXSP,2013-04-25 00:25:00,
2013-04-24 20:30:00,72.9,51.9,29.83,SW,225,0.0,7.8,48,0.00,,,0.00,WUHU21623XXSP,2013-04-25 00:30:00,
2013-04-24 20:35:00,72.7,51.8,29.83,SW,225,0.0,7.8,48,0.00,,,0.00,WUHU21623XXSP,2013-04-25 00:35:00,
2013-04-24 20:40:00,72.3,51.4,29.84,SSW,202,0.0,0.0,48,0.00,,,0.00,WUHU21623XXSP,2013-04-25 00:40:00,
2013-04-24 20:45:00,72.0,51.1,29.84,SW,225,0.0,4.0,48,0.00,,,0.00,WUHU21623XXSP,2013-04-25 00:45:00,
2013-04-24 20:50:00,71.4,51.0,29.84,SW,225,0.0,4.0,49,0.00,,,0.00,WUHU21623XXSP,2013-04-25 00:50:00,
2013-04-24 20:55:00,71.2,51.1,29.84,SSE,157,0.0,0.0,49,0.00,,,0.00,WUHU21623XXSP,2013-04-25 00:55:00,
2013-04-24 21:00:00,70.9,51.1,29.84,SSW,202,8.3,8.3,49,0.00,,,0.00,WUHU21623XXSP,2013-04-25 01:00:00,
2013-04-24 21:05:00,70.7,50.6,29.85,SW,225,0.0,8.3,49,0.00,,,0.00,WUHU21623XXSP,2013-04-25 01:05:00,
2013-04-24 21:10:00,70.5,51.0,29.85,SW,225,2.0,2.0,50,0.00,,,0.00,WUHU21623XXSP,2013-04-25 01:10:00,
2013-04-24 21:15:00,70.2,50.7,29.85,SSW,202,0.0,2.0,50,0.00,,,0.00,WUHU21623XXSP,2013-04-25 01:15:00,
2013-04-24 21:20:00,70.0,50.7,29.85,SW,225,0.0,0.0,50,0.00,,,0.00,WUHU21623XXSP,2013-04-25 01:20:00,
2013-04-24 21:25:00,69.8,50.4,29.85,SW,225,2.5,2.5,50,0.00,,,0.00,WUHU21623XXSP,2013-04-25 01:25:00,
2013-04-24 21:30:00,69.4,50.0,29.85,SW,225,0.0,2.5,50,0.00,,,0.00,WUHU21623XXSP,2013-04-25 01:30:00,
2013-04-24 21:35:00,69.1,49.9,29.85,SW,225,0.0,0.0,50,0.00,,,0.00,WUHU21623XXSP,2013-04-25 01:35:00,
2013-04-24 21:40:00,68.9,50.2,29.84,WSW,247,0.0,0.0,51,0.00,,,0.00,WUHU21623XXSP,2013-04-25 01:40:00,
2013-04-24 21:45:00,68.5,49.9,29.85,SSW,202,0.0,0.0,51,0.00,,,0.00,WUHU21623XXSP,2013-04-25 01:45:00,
2013-04-24 21:50:00,68.2,49.4,29.85,SW,225,6.9,6.9,51,0.00,,,0.00,WUHU21623XXSP,2013-04-25 01:50:00,
2013-04-24 21:55:00,67.8,49.5,29.85,SW,225,0.0,6.9,52,0.00,,,0.00,WUHU21623XXSP,2013-04-25 01:55:00,
2013-04-24 22:00:00,67.3,49.1,29.86,SSW,202,0.0,0.0,52,0.00,,,0.00,WUHU21623XXSP,2013-04-25 02:00:00,
2013-04-24 22:05:00,66.9,49.2,29.85,SSW,202,0.0,0.0,53,0.00,,,0.00,WUHU21623XXSP,2013-04-25 02:05:00,
2013-04-24 22:10:00,66.7,49.1,29.86,SSW,202,0.0,2.2,53,0.00,,,0.00,WUHU21623XXSP,2013-04-25 02:10:00,
2013-04-24 22:15:00,66.2,48.6,29.85,SSW,202,0.0,2.2,53,0.00,,,0.00,WUHU21623XXSP,2013-04-25 02:15:00,
2013-04-24 22:20:00,66.0,48.9,29.86,SSW,202,0.0,0.0,54,0.00,,,0.00,WUHU21623XXSP,2013-04-25 02:20:00,
2013-04-24 22:25:00,65.5,48.3,29.85,SSW,202,0.0,0.0,54,0.00,,,0.00,WUHU21623XXSP,2013-04-25 02:25:00,
2013-04-24 22:30:00,65.1,48.5,29.86,SSW,202,0.0,3.1,55,0.00,,,0.00,WUHU21623XXSP,2013-04-25 02:30:00,
2013-04-24 22:35:00,64.6,48.3,29.86,SSW,202,0.0,3.1,56,0.00,,,0.00,WUHU21623XXSP,2013-04-25 02:35:00,
2013-04-24 22:40:00,64.2,48.1,29.86,SW,225,0.0,0.0,56,0.00,,,0.00,WUHU21623XXSP,2013-04-25 02:40:00,
2013-04-24 22:45:00,63.7,48.1,29.86,SW,225,0.0,0.9,57,0.00,,,0.00,WUHU21623XXSP,2013-04-25 02:45:00,
2013-04-24 22:50:00,63.3,48.1,29.86,SW,225,0.0,0.9,57,0.00,,,0.00,WUHU21623XXSP,2013-04-25 02:50:00,
2013-04-24 22:55:00,63.0,47.6,29.87,SW,225,0.0,0.0,57,0.00,,,0.00,WUHU21623XXSP,2013-04-25 02:55:00,
2013-04-24 23:00:00,62.4,47.4,29.87,SW,225,1.3,2.0,58,0.00,,,0.00,WUHU21623XXSP,2013-04-25 03:00:00,
2013-04-24 23:05:00,62.2,47.8,29.87,SW,225,0.0,2.0,59,0.00,,,0.00,WUHU21623XXSP,2013-04-25 03:05:00,
2013-04-24 23:10:00,61.7,47.4,29.87,SW,225,0.0,0.0,60,0.00,,,0.00,WUHU21623XXSP,2013-04-25 03:10:00,
2013-04-24 23:15:00,61.3,47.4,29.88,SW,225,0.0,5.4,60,0.00,,,0.00,WUHU21623XXSP,2013-04-25 03:15:00,
2013-04-24 23:20:00,61.0,47.5,29.88,WSW,247,0.0,5.4,61,0.00,,,0.00,WUHU21623XXSP,2013-04-25 03:20:00,
2013-04-24 23:25:00,60.6,47.5,29.88,WSW,247,0.0,0.0,61,0.00,,,0.00,WUHU21623XXSP,2013-04-25 03:25:00,
2013-04-24 23:30:00,60.4,47.4,29.89,SSW,202,6.0,6.0,62,0.00,,,0.00,WUHU21623XXSP,2013-04-25 03:30:00,
2013-04-24 23:35:00,60.1,47.0,29.89,SW,225,0.0,6.0,62,0.00,,,0.00,WUHU21623XXSP,2013-04-25 03:35:00,
2013-04-24 23:40:00,59.7,46.7,29.89,SSW,202,0.0,2.7,62,0.00,,,0.00,WUHU21623XXSP,2013-04-25 03:40:00,
2013-04-24 23:45:00,59.5,46.9,29.90,SSE,157,2.5,2.5,63,0.00,,,0.00,WUHU21623XXSP,2013-04-25 03:45:00,
2013-04-24 23:50:00,59.0,46.4,29.90,SSE,157,0.0,2.5,63,0.00,,,0.00,WUHU21623XXSP,2013-04-25 03:50:00,
2013-04-24 23:55:00,58.8,46.6,29.90,South,180,0.0,0.0,64,0.00,,,0.00,WUHU21623XXSP,2013-04-25 03:55:00,